Location: Dattensoll
(49.9928°N, 9.8954°E)
Time: 20:25:11
(UTC+00:00)

SeaSat 1 - Pass Details

Date: 19 May 2025
Orbit: 738 x 740 km, 108.0° (Epoch: 20 June)

Event Time Altitude Azimuth Distance (km) Brightness Sun altitude
Exits shadow 19:57:08 - 108° (ESE) 2,573 4.7 -7.3°
Reaches altitude 10° 19:58:02 10° 103° (ESE) 2,250 4.4 -7.4°
Maximum altitude 20:02:12 29° 45° (NE) 1,347 3.8 -7.9°
Drops below altitude 10° 20:06:23 10° 347° (NNW) 2,261 6.0 -8.4°
Sets 20:08:53 0° 336° (NNW) 3,188 7.3 -8.7°
